Location: An Tulaigh
(53.1928°N, 8.1647°W)
Time: 00:17:04
(UTC+00:00)

Cosmos 2034 Rocket - Pass Details

Date: 15 May 2026
Orbit: 956 x 1001 km, 82.9° (Epoch: 9 June)

Event Time Altitude Azimuth Distance (km) Brightness Sun altitude
Exits shadow 21:58:34 13° 157° (SSE) 2,560 5.6 -10.8°
Maximum altitude 22:03:57 45° 89° (E) 1,337 4.5 -11.3°
Drops below altitude 10° 22:09:54 10° 20° (NNE) 2,762 6.9 -11.8°
Sets 22:12:31 0° 14° (NNE) 3,709 7.7 -12.0°
